TimeEDT,TemperatureF,Dew PointF,Humidity,Sea Level PressureIn,VisibilityMPH,Wind Direction,Wind SpeedMPH,Gust SpeedMPH,PrecipitationIn,Events,Conditions,WindDirDegrees,DateUTC
12:53 AM,75.9,71.1,85,30.15,10.0,SSE,3.5,-,N/A,,Clear,160,2013-06-23 04:53:00
1:53 AM,75.0,71.1,87,30.15,10.0,Calm,Calm,-,N/A,,Partly Cloudy,0,2013-06-23 05:53:00
2:53 AM,75.0,71.1,87,30.15,10.0,SSE,3.5,-,N/A,,Mostly Cloudy,160,2013-06-23 06:53:00
3:53 AM,73.0,71.1,93,30.14,10.0,SE,4.6,-,N/A,,Scattered Clouds,140,2013-06-23 07:53:00
4:53 AM,73.0,71.1,93,30.14,10.0,South,4.6,-,N/A,,Clear,170,2013-06-23 08:53:00
5:53 AM,72.0,70.0,93,30.15,10.0,NW,3.5,-,N/A,,Clear,310,2013-06-23 09:53:00
6:08 AM,73.4,71.6,94,30.16,10.0,Calm,Calm,-,N/A,,Mostly Cloudy,0,2013-06-23 10:08:00
6:33 AM,73.4,71.6,94,30.17,10.0,Calm,Calm,-,N/A,,Mostly Cloudy,0,2013-06-23 10:33:00
6:53 AM,73.9,71.1,91,30.17,10.0,Calm,Calm,-,N/A,,Mostly Cloudy,0,2013-06-23 10:53:00
7:03 AM,73.4,71.6,94,30.17,10.0,SE,3.5,-,N/A,,Mostly Cloudy,130,2013-06-23 11:03:00
7:25 AM,73.4,71.6,94,30.18,10.0,SE,3.5,-,N/A,,Scattered Clouds,130,2013-06-23 11:25:00
7:53 AM,75.0,72.0,90,30.18,10.0,Calm,Calm,-,N/A,,Scattered Clouds,0,2013-06-23 11:53:00
8:53 AM,78.1,73.0,84,30.21,10.0,Calm,Calm,-,N/A,,Clear,0,2013-06-23 12:53:00
9:53 AM,81.0,72.0,74,30.20,10.0,WSW,4.6,-,N/A,,Mostly Cloudy,250,2013-06-23 13:53:00
10:53 AM,82.9,71.1,67,30.20,10.0,South,5.8,-,N/A,,Mostly Cloudy,170,2013-06-23 14:53:00
11:00 AM,84.2,71.6,66,30.21,10.0,Variable,6.9,-,N/A,,Mostly Cloudy,0,2013-06-23 15:00:00
11:35 AM,84.2,69.8,62,30.20,10.0,Variable,3.5,-,N/A,,Mostly Cloudy,0,2013-06-23 15:35:00
11:53 AM,84.9,72.0,65,30.19,10.0,West,4.6,-,N/A,,Mostly Cloudy,280,2013-06-23 15:53:00
12:53 PM,84.9,70.0,61,30.18,10.0,WSW,5.8,-,N/A,,Mostly Cloudy,250,2013-06-23 16:53:00
1:00 PM,84.2,69.8,62,30.19,10.0,Variable,3.5,-,N/A,,Mostly Cloudy,0,2013-06-23 17:00:00
1:53 PM,88.0,70.0,55,30.16,10.0,South,5.8,-,N/A,,Partly Cloudy,170,2013-06-23 17:53:00
2:53 PM,89.1,71.1,55,30.14,10.0,Calm,Calm,-,N/A,,Partly Cloudy,0,2013-06-23 18:53:00
3:53 PM,90.0,69.1,50,30.13,10.0,SSW,5.8,-,N/A,,Clear,210,2013-06-23 19:53:00
4:53 PM,89.1,70.0,53,30.12,10.0,ESE,6.9,-,N/A,Thunderstorm,Thunderstorm,120,2013-06-23 20:53:00
5:53 PM,79.0,71.1,77,30.14,10.0,SSE,6.9,-,0.00,,Clear,150,2013-06-23 21:53:00
6:44 PM,78.8,71.6,78,30.15,10.0,SSE,3.5,-,N/A,Thunderstorm,Thunderstorm,160,2013-06-23 22:44:00
6:53 PM,80.1,73.0,79,30.14,10.0,SSE,4.6,-,N/A,,Partly Cloudy,160,2013-06-23 22:53:00
7:53 PM,80.1,75.0,85,30.15,10.0,South,4.6,-,N/A,,Mostly Cloudy,180,2013-06-23 23:53:00
8:53 PM,78.1,73.0,84,30.16,10.0,SSE,4.6,-,N/A,,Clear,160,2013-06-24 00:53:00
9:53 PM,78.1,73.9,87,30.19,-9999.0,ESE,4.6,-,N/A,,Unknown,120,2013-06-24 01:53:00
10:53 PM,77.0,73.0,88,30.19,10.0,Calm,Calm,-,N/A,,Partly Cloudy,0,2013-06-24 02:53:00
11:17 PM,75.2,73.4,94,30.19,10.0,Calm,Calm,-,N/A,,Mostly Cloudy,0,2013-06-24 03:17:00
11:42 PM,75.2,73.4,94,30.19,10.0,Calm,Calm,-,N/A,,Scattered Clouds,0,2013-06-24 03:42:00
11:53 PM,75.0,72.0,90,30.18,10.0,SSE,4.6,-,N/A,,Clear,160,2013-06-24 03:53:00